COSMOS 1275 DEB, 42164

Orbit data source: Space-Track

COSMOS 1275 DEB, 42164 is space debris in LEO originally from a launch on Thu, 04 Jun 1981 UTC launched from the Plesetsk Missile And Space Complex (PKMTR). Debris objects in space refer to the collection of defunct objects orbiting the Earth. Examples of debris include non-operational satellites, rocket bodies, and fragments generated from explosions, collisions, or faulty payload assembly.

Loading next visibility...
Identifier
42164, 1981-053SC
Orbit
LEO
Country
Flag of CISCIS
Related business
Manufacturer
Unknown
Mission
Spacecraft
Bus & Motor
Unknown
Mass
Unknown
Launch date (UTC)
1981-06-04 (44 years ago)
Launch vehicle
Unknown
Launch site
Plesetsk Missile And Space Complex (PKMTR)
Object type
Payload
Rocket body
Debris
Shape & HBR
Unknown
Radar Cross Section
Small (<0.1 m²)

Expand to show TLE details & history
Last TLE update: 3 days ago

TLE from 3 days ago
0 COSMOS 1275 DEB
1 42164U 81053SC  25255.64513120  .00007624  00000-0  18418-2 0  9998
2 42164  82.9209 214.1461 0021001 166.2126 193.9652 14.52899082615179
Epoch: 2025-09-12T15:28Z
TLE epoch observation values (Epoch: 2025-09-12T15:28:59.335Z)
Latitude
0.00001°
Longitude
-9.991°
Altitude
733.666 km
Speed
7.481 km/s
True Right ascension
14h 16m 35s
True Declination
0° 00' 00"
Sunlit
Object was in daylight at epoch
Visualization orbit readout
Latitude
Unknown
Longitude
Unknown
Altitude
Unknown
Speed
Unknown
Apparent Right ascension
Unknown
Apparent Declination
Unknown
Sunlit
N/A
Visualization observer readout
Local Sidereal Time
07:00:07
Azimuth
Unknown
Elevation
Unknown
Doppler factor
Unknown
Orbital elements
Apogee altitude
728.131 km
Perigee altitude
698.346 km
Semi-major axis
7,091.375 km
Eccentricity
0.0021
Inclination
82.9209°
RAAN
214.1461°
Arg. of periapsis
166.2126°
True anomaly
193.90727°
Mean anomaly
193.9652°
Eccentric anomaly
193.93622°
Mean motion
3.63452 °/min
Orbital period
99.05 mins
BSTAR
0.0018418
Loading maneuver chart data...
Computing Atmospheric mass density...
Loading historical data...
Loading historical data...
Loading historical data...
Loading historical data...
Loading historical data...
Loading historical data...
Loading historical data...

Documentation

Showing up to 5 results
|